Vorticity
-2 -2 2 3 2 5 4 5 5 3 8 11 7 6 8 9 9 10 11 11 9 9 9 8 6 6 6 5 4 4 4 4 4 5 6 6 7 7 6 7 7 6 4 4 5 4 4 4 2 1 2 2 8 16 13 5 5 6 4 4 4 5 7
-0 -2 1 3 3 5 5 5 5 4 6 7 5 7 7 4 3 4 7 8 7 8 9 8 6 7 7 5 4 3 3 3 3 3 5 5 6 6 6 7 7 6 5 4 4 5 4 4 2 1 1 2 5 13 15 7 4 5 4 4 4 5 5
3 2 3 2 2 3 4 5 7 6 5 4 4 4 1 -2 -1 1 6 7 6 7 7 7 7 7 7 7 7 6 5 5 5 4 4 4 4 5 5 6 6 6 6 4 4 5 5 5 4 1 0 2 3 9 15 10 4 5 5 4 4 4 4
6 5 1 0 3 4 4 6 7 8 7 5 4 2 -0 -0 1 2 4 7 7 6 7 7 6 6 6 8 8 8 7 7 7 6 5 5 4 4 4 5 6 5 5 5 4 5 6 6 6 3 1 1 2 7 14 11 5 5 6 4 4 4 3
9 6 0 2 7 8 7 7 9 9 7 6 4 2 2 2 4 3 3 5 6 6 6 6 6 7 7 7 5 7 9 10 10 9 9 7 6 5 5 5 5 5 5 5 4 4 5 5 6 5 2 1 2 7 13 12 6 4 6 5 4 4 3
11 7 4 7 9 8 4 2 6 7 7 8 6 4 3 3 4 3 2 4 5 6 5 5 8 9 8 5 4 7 11 11 10 10 11 12 11 9 7 6 5 6 5 4 4 4 5 6 6 6 4 1 1 6 12 12 6 4 5 5 5 4 3
15 13 8 5 4 5 4 2 4 6 7 9 7 7 7 4 3 4 4 3 3 6 7 7 9 11 8 4 5 8 8 7 7 8 9 12 13 11 10 8 7 6 6 5 5 4 5 5 5 5 4 2 2 6 12 12 7 4 4 5 6 5 4
14 18 11 1 -0 4 6 4 4 7 8 7 6 7 8 5 3 4 5 4 4 6 7 8 8 9 7 6 7 8 6 4 6 8 10 12 14 14 12 9 7 6 6 5 5 4 5 6 6 5 5 4 4 8 12 11 6 3 3 5 6 5 4
9 12 9 3 1 4 5 3 4 8 9 9 8 6 6 7 6 6 6 5 4 5 6 6 7 7 7 9 10 9 6 5 5 8 12 13 13 15 14 13 11 9 8 7 6 6 5 5 6 6 6 5 6 9 12 10 6 3 4 5 5 5 4
3 2 3 3 4 6 7 4 4 5 8 12 13 11 10 8 7 9 9 6 4 6 7 5 6 7 7 10 12 9 6 5 6 8 11 11 11 11 12 12 13 12 12 11 10 9 9 8 7 6 7 7 8 12 13 10 6 3 3 4 4 5 4
6 4 2 3 7 10 8 3 1 1 4 9 12 16 17 13 11 11 9 7 6 7 8 6 7 8 7 9 11 9 6 4 5 9 10 10 10 9 9 11 13 15 16 15 16 15 14 12 10 9 11 11 11 12 12 10 6 3 4 4 4 5 5
15 10 4 2 7 10 6 2 -1 -4 -1 4 6 12 19 20 20 17 11 11 9 8 8 6 7 7 6 10 12 10 7 4 6 10 9 8 9 10 12 14 15 17 17 19 22 24 24 23 20 17 16 15 13 11 10 9 6 3 4 4 3 4 4
23 19 8 5 8 10 7 3 -0 -4 -1 6 5 7 14 20 22 19 15 14 10 9 9 7 8 8 9 13 15 11 7 6 9 10 6 6 7 9 11 14 16 15 13 15 20 23 25 25 25 25 24 22 15 10 10 9 6 4 5 5 4 4 5
23 24 18 14 11 10 9 5 1 -2 -1 6 9 8 11 15 16 14 12 13 12 11 9 6 6 6 8 13 16 15 12 10 10 8 5 6 8 8 8 8 10 9 9 11 13 14 16 18 20 23 27 25 16 9 10 9 6 4 4 5 5 4 5
15 19 21 18 12 11 13 8 2 -2 -5 0 8 9 10 12 13 10 7 8 9 8 6 5 4 5 10 13 14 17 18 13 8 7 5 5 6 7 5 3 3 3 3 3 4 7 11 14 16 17 20 22 16 9 9 10 7 5 5 6 6 6 5
8 13 16 16 14 16 17 11 7 5 -0 -1 4 7 9 11 11 10 8 7 6 7 6 6 7 9 13 14 13 15 18 13 7 5 4 5 6 6 4 1 -1 -1 -1 -0 1 3 5 9 15 16 15 17 16 12 10 11 9 5 6 7 7 6 5
2 6 9 12 16 17 14 10 9 10 7 3 1 4 8 9 8 8 9 7 6 6 5 6 9 8 8 9 8 9 13 12 7 5 5 5 5 4 5 4 0 -2 0 1 -0 1 4 7 11 14 15 16 17 16 14 13 9 5 7 10 8 7 4
0 1 2 6 11 13 13 11 10 12 14 9 2 3 6 7 6 5 6 8 9 8 7 9 10 7 6 6 5 6 11 12 9 9 8 6 4 2 2 4 3 1 0 -0 -0 2 4 7 8 11 15 17 17 17 17 16 10 5 7 10 8 6 3
1 2 3 4 7 9 10 13 13 14 16 12 5 3 5 7 8 4 3 7 9 8 9 8 6 7 7 3 1 6 8 7 8 12 13 11 9 4 -1 0 3 3 1 2 4 3 4 9 10 8 9 13 16 16 16 16 12 7 8 9 9 7 3
2 5 5 3 6 9 9 11 14 14 14 12 6 5 6 7 9 6 2 4 5 6 7 6 5 6 5 2 2 6 6 4 5 7 10 10 9 8 6 4 6 9 10 10 10 9 9 10 10 9 7 10 13 13 13 16 14 10 7 7 9 8 4
6 6 6 3 4 8 9 9 10 12 14 11 8 7 6 6 10 11 6 2 3 5 5 5 5 5 3 3 4 4 3 3 1 1 4 5 7 9 7 4 4 6 5 5 6 9 10 8 8 10 7 6 8 10 13 17 17 13 8 7 10 9 5
6 4 4 4 5 7 9 8 8 9 10 10 10 9 5 3 7 12 11 8 7 8 7 5 7 9 8 9 11 9 5 4 3 2 1 2 6 10 9 5 4 3 1 0 0 2 4 4 6 8 7 6 6 6 8 13 17 18 12 7 8 8 5
4 4 3 3 6 8 8 7 7 7 7 9 11 11 8 5 3 5 10 10 6 7 7 3 5 10 10 10 11 10 9 10 8 5 2 -2 -2 2 6 7 4 4 5 5 5 4 3 3 5 6 5 4 3 4 5 7 12 16 16 11 8 7 5
4 4 4 4 7 8 7 7 8 7 7 8 8 9 10 10 8 7 9 7 1 1 3 3 5 8 8 5 3 3 7 11 12 12 11 6 -0 -3 0 3 4 4 4 2 2 3 2 3 6 6 4 3 3 3 4 5 7 11 17 16 10 7 5
6 6 5 4 6 8 8 6 6 6 7 6 6 8 8 9 9 9 11 12 8 4 3 3 3 3 3 4 3 1 0 1 8 15 11 6 6 3 -2 -0 4 5 6 7 11 12 7 3 2 3 5 5 2 2 3 5 5 6 13 19 17 11 6
5 7 7 5 5 8 9 8 5 6 7 6 5 6 6 6 5 4 6 9 10 9 6 4 3 3 3 4 3 3 1 -0 8 14 6 0 5 3 -2 3 6 1 -1 3 12 20 19 12 7 6 8 6 3 3 3 2 2 2 7 14 17 16 11
4 6 8 7 6 7 9 8 6 4 4 5 6 6 5 5 5 5 5 3 4 5 4 2 2 3 3 3 3 6 8 5 6 10 7 4 2 -3 0 8 6 -0 -2 -0 4 11 15 15 13 11 11 11 9 7 4 0 -0 2 5 8 13 19 18
6 6 7 7 7 8 9 8 7 5 4 4 5 6 6 5 5 6 7 6 5 5 4 6 9 7 5 6 6 8 10 7 5 11 15 11 2 -1 5 7 1 -2 1 2 3 6 9 11 11 11 14 14 10 11 13 8 1 -1 0 2 4 11 16
8 8 8 8 9 10 10 8 7 6 5 4 5 6 7 6 6 5 4 4 4 3 4 8 11 9 8 8 6 5 6 5 4 9 13 8 1 -1 2 2 -1 -1 1 3 5 8 9 8 5 7 11 6 1 8 14 14 13 13 7 0 -1 2 8
7 7 8 8 10 12 12 10 8 7 7 6 6 7 6 5 6 5 2 2 2 1 1 3 5 6 6 6 6 4 5 5 5 5 6 4 2 2 3 3 1 1 1 2 4 7 8 7 5 7 8 1 -3 3 8 7 11 17 18 15 10 4 0
8 6 6 7 9 10 10 9 7 7 8 7 6 7 6 5 6 5 4 5 5 3 3 2 2 2 3 5 6 5 4 4 4 3 3 2 2 5 7 6 4 3 3 3 6 9 9 6 4 4 6 6 1 2 7 7 3 5 10 16 17 13 6
9 8 8 8 8 9 11 13 12 10 9 10 9 8 6 4 4 4 4 5 5 5 6 6 5 5 5 4 3 2 3 4 4 5 6 6 9 11 10 8 6 5 5 5 8 11 8 4 3 4 8 11 6 1 4 7 6 4 1 1 10 16 12
10 11 11 10 9 9 11 15 19 18 15 14 15 15 13 9 5 2 2 3 4 4 4 5 5 4 2 1 -0 0 3 4 6 8 8 7 9 8 5 5 4 3 6 10 15 16 10 6 7 8 8 8 7 6 4 2 4 8 6 7 11 11 12
9 11 13 14 14 12 10 9 13 16 15 14 15 16 19 19 15 10 7 7 8 9 9 8 8 7 9 13 16 18 18 15 12 12 11 11 11 9 7 8 7 6 10 12 11 11 9 7 8 8 6 6 6 6 5 3 4 3 2 7 8 3 8
8 8 11 14 13 11 9 7 9 10 9 9 11 10 10 12 13 13 14 15 15 17 18 17 17 18 20 21 21 22 22 18 14 12 11 11 11 12 14 13 10 11 12 8 2 3 5 7 6 3 1 2 2 2 3 5 6 5 5 9 10 5 4
5 4 5 9 9 9 9 9 9 10 9 8 11 12 9 8 8 10 13 14 13 12 14 14 14 14 15 13 12 9 6 4 4 4 4 5 6 8 10 10 10 11 12 9 6 4 3 4 4 4 6 5 3 4 4 1 1 4 5 4 3 3 6
5 4 2 3 4 5 7 8 8 10 11 8 7 10 12 12 10 9 9 8 7 8 8 8 7 5 5 6 6 5 4 3 3 1 1 3 4 4 6 8 7 5 5 5 4 3 3 3 2 2 4 2 1 5 7 5 5 6 5 6 5 5 7
4 4 2 3 4 4 6 8 8 8 11 11 6 3 7 11 10 8 5 4 6 7 5 5 5 3 3 3 2 2 4 3 3 3 4 3 3 3 5 7 7 7 8 8 7 7 7 6 5 6 7 7 7 8 7 6 7 5 4 6 6 6 12
Height
5877 5879 5880 5881 5882 5882 5884 5886 5888 5890 5892 5893 5895 5896 5898 5899 5901 5901 5902 5903 5904 5906 5907 5908 5909 5910 5911 5912 5912 5913 5914 5916 5917 5918 5919 5919 5920 5921 5922 5922 5923 5924 5925 5925 5926 5926 5927 5927 5927 5928 5929 5929 5929 5928 5928 5928 5928 5927 5926 5925 5924 5924 5924
5876 5877 5879 5880 5881 5883 5884 5884 5885 5887 5889 5891 5893 5894 5896 5898 5900 5901 5901 5902 5903 5904 5905 5907 5908 5909 5909 5910 5910 5911 5912 5914 5915 5916 5917 5918 5918 5919 5919 5920 5921 5922 5923 5923 5924 5925 5925 5925 5926 5926 5927 5927 5927 5927 5927 5927 5927 5926 5925 5924 5923 5923 5923
5875 5877 5878 5879 5881 5882 5883 5884 5884 5885 5886 5888 5890 5892 5894 5896 5898 5899 5899 5900 5901 5901 5903 5905 5906 5907 5908 5908 5909 5910 5911 5912 5913 5914 5915 5915 5916 5916 5917 5918 5919 5920 5920 5921 5922 5922 5923 5923 5924 5924 5925 5925 5925 5925 5925 5925 5925 5925 5924 5923 5922 5922 5922
5874 5876 5877 5878 5880 5881 5882 5883 5884 5884 5885 5886 5888 5889 5891 5893 5895 5896 5897 5898 5899 5899 5901 5903 5904 5905 5905 5906 5907 5908 5909 5910 5911 5912 5912 5913 5913 5914 5915 5916 5917 5917 5918 5918 5919 5920 5920 5921 5921 5922 5923 5923 5924 5924 5924 5924 5924 5923 5923 5922 5921 5921 5921
5873 5874 5875 5877 5879 5880 5881 5882 5883 5884 5885 5885 5886 5887 5889 5890 5892 5893 5895 5896 5897 5898 5899 5900 5901 5902 5903 5905 5906 5907 5907 5908 5909 5910 5910 5911 5911 5912 5913 5914 5914 5915 5915 5915 5916 5917 5918 5918 5919 5920 5921 5921 5922 5922 5922 5922 5922 5922 5921 5921 5920 5920 5920
5871 5872 5874 5876 5877 5879 5880 5881 5882 5883 5884 5884 5885 5886 5887 5888 5889 5891 5892 5893 5895 5896 5896 5897 5899 5900 5902 5903 5904 5905 5905 5906 5907 5908 5908 5909 5909 5910 5911 5911 5912 5912 5913 5913 5914 5915 5915 5916 5917 5918 5918 5919 5920 5920 5920 5920 5920 5920 5920 5920 5920 5920 5920
5868 5870 5872 5874 5875 5876 5878 5879 5880 5881 5881 5882 5882 5883 5884 5885 5886 5888 5889 5890 5892 5893 5895 5896 5897 5898 5899 5900 5901 5902 5903 5904 5904 5905 5906 5906 5907 5907 5908 5908 5909 5910 5910 5910 5911 5912 5913 5914 5915 5915 5916 5917 5918 5918 5918 5918 5918 5918 5918 5918 5919 5919 5919
5865 5867 5870 5871 5872 5874 5875 5877 5878 5878 5878 5879 5879 5880 5881 5883 5884 5885 5886 5888 5890 5891 5892 5894 5895 5896 5897 5898 5899 5900 5900 5901 5902 5902 5903 5904 5904 5905 5905 5905 5906 5906 5907 5908 5908 5909 5910 5911 5912 5913 5914 5915 5915 5916 5916 5915 5915 5916 5916 5916 5917 5917 5917
5862 5864 5866 5868 5869 5871 5872 5874 5875 5876 5876 5876 5876 5877 5878 5880 5881 5882 5884 5886 5887 5888 5890 5892 5893 5894 5894 5895 5896 5897 5898 5898 5899 5900 5901 5902 5902 5902 5903 5903 5903 5903 5904 5905 5905 5906 5908 5909 5910 5910 5911 5912 5913 5913 5913 5913 5913 5913 5913 5914 5914 5915 5916
5858 5860 5862 5864 5866 5868 5869 5871 5873 5874 5874 5874 5875 5875 5876 5877 5879 5880 5882 5883 5884 5886 5888 5889 5890 5891 5892 5893 5894 5894 5895 5896 5897 5898 5899 5899 5899 5900 5900 5900 5901 5901 5902 5902 5903 5904 5905 5906 5907 5907 5908 5909 5910 5910 5911 5910 5910 5911 5911 5911 5912 5913 5914
5853 5855 5858 5860 5862 5864 5866 5868 5870 5871 5872 5872 5873 5874 5874 5875 5876 5878 5880 5881 5883 5884 5885 5885 5887 5888 5889 5890 5891 5892 5893 5894 5895 5896 5896 5897 5897 5897 5898 5898 5899 5899 5900 5900 5901 5902 5903 5903 5904 5904 5905 5906 5906 5907 5907 5907 5907 5908 5908 5909 5909 5910 5911
5850 5852 5853 5855 5857 5859 5862 5864 5866 5868 5869 5870 5871 5872 5872 5872 5874 5876 5877 5879 5880 5881 5881 5882 5884 5885 5887 5888 5889 5890 5891 5892 5893 5893 5894 5894 5895 5895 5895 5896 5897 5897 5898 5898 5898 5899 5900 5900 5901 5901 5902 5902 5903 5903 5904 5904 5904 5905 5905 5906 5907 5908 5909
5848 5850 5851 5852 5853 5855 5858 5860 5863 5865 5866 5867 5869 5870 5870 5871 5872 5873 5875 5876 5878 5878 5879 5879 5881 5883 5884 5886 5887 5888 5889 5890 5891 5891 5891 5892 5892 5893 5893 5894 5895 5895 5895 5896 5896 5897 5897 5897 5898 5898 5898 5898 5899 5899 5900 5901 5901 5902 5902 5903 5904 5905 5906
5845 5847 5848 5850 5851 5852 5854 5857 5860 5862 5864 5865 5866 5867 5868 5869 5870 5871 5872 5873 5874 5875 5876 5877 5878 5880 5882 5883 5884 5886 5887 5888 5888 5889 5889 5890 5890 5891 5891 5892 5892 5893 5893 5894 5894 5894 5894 5894 5895 5895 5895 5895 5895 5896 5897 5897 5898 5899 5899 5900 5901 5902 5903
5842 5843 5845 5847 5848 5850 5852 5854 5857 5859 5861 5862 5863 5864 5866 5867 5868 5869 5870 5871 5872 5873 5874 5875 5876 5878 5879 5881 5882 5883 5884 5885 5885 5886 5887 5887 5888 5889 5889 5889 5890 5891 5891 5892 5892 5892 5892 5892 5892 5892 5892 5892 5893 5893 5893 5894 5896 5896 5897 5897 5898 5899 5900
5839 5840 5842 5844 5845 5848 5850 5851 5853 5855 5857 5859 5860 5861 5863 5864 5865 5867 5868 5869 5870 5871 5872 5873 5874 5875 5876 5878 5879 5880 5881 5881 5882 5883 5884 5885 5886 5887 5887 5887 5888 5889 5889 5890 5890 5890 5890 5890 5890 5890 5890 5890 5890 5890 5891 5892 5893 5894 5894 5894 5895 5896 5896
5835 5837 5838 5840 5842 5844 5846 5848 5850 5852 5854 5857 5858 5859 5860 5862 5863 5864 5865 5866 5867 5868 5869 5870 5871 5872 5873 5875 5876 5877 5878 5879 5880 5881 5882 5883 5884 5884 5885 5885 5885 5886 5887 5887 5888 5888 5888 5888 5888 5888 5887 5887 5887 5887 5888 5889 5890 5891 5891 5891 5891 5892 5893
5833 5834 5835 5837 5838 5841 5842 5844 5846 5848 5851 5853 5855 5856 5858 5859 5860 5861 5863 5864 5865 5866 5866 5867 5868 5869 5871 5872 5873 5874 5876 5877 5878 5879 5880 5881 5882 5882 5882 5882 5883 5884 5884 5885 5885 5885 5886 5886 5886 5886 5885 5885 5885 5885 5885 5886 5887 5887 5888 5888 5888 5888 5889
5830 5831 5833 5834 5835 5837 5839 5841 5843 5845 5847 5850 5851 5853 5855 5857 5858 5859 5861 5862 5862 5863 5863 5864 5866 5867 5868 5869 5870 5872 5873 5874 5875 5876 5877 5878 5879 5879 5879 5880 5880 5881 5882 5882 5882 5882 5883 5883 5883 5883 5883 5882 5882 5882 5882 5883 5884 5884 5885 5885 5884 5884 5885
5827 5828 5830 5832 5833 5834 5836 5838 5840 5842 5844 5846 5848 5850 5852 5853 5855 5857 5857 5858 5858 5859 5860 5862 5863 5864 5865 5866 5867 5869 5870 5871 5872 5873 5874 5875 5875 5876 5876 5877 5878 5878 5879 5879 5879 5879 5879 5880 5880 5880 5880 5880 5880 5879 5879 5879 5880 5881 5881 5881 5881 5880 5880
5824 5825 5827 5829 5830 5832 5833 5835 5837 5839 5841 5842 5844 5846 5848 5850 5853 5854 5854 5854 5855 5857 5858 5859 5860 5861 5862 5863 5864 5865 5867 5868 5869 5870 5870 5871 5872 5872 5873 5873 5874 5875 5876 5875 5875 5875 5876 5876 5876 5877 5877 5877 5876 5876 5876 5876 5876 5877 5878 5878 5877 5876 5875
5820 5822 5824 5826 5827 5829 5831 5832 5835 5836 5838 5839 5840 5842 5845 5847 5849 5850 5851 5852 5853 5854 5855 5856 5857 5858 5859 5860 5862 5863 5864 5865 5866 5866 5867 5867 5868 5868 5869 5870 5871 5871 5872 5872 5872 5872 5871 5872 5873 5873 5873 5873 5873 5872 5872 5872 5872 5873 5874 5874 5873 5871 5870
5815 5818 5820 5822 5824 5826 5828 5829 5831 5833 5834 5836 5837 5839 5841 5843 5844 5846 5848 5849 5850 5851 5852 5853 5854 5856 5857 5858 5859 5860 5861 5861 5862 5863 5864 5864 5864 5865 5866 5867 5867 5867 5868 5868 5868 5868 5868 5868 5868 5869 5869 5868 5868 5868 5868 5868 5868 5869 5869 5869 5868 5866 5866
5810 5813 5815 5818 5820 5822 5824 5826 5828 5830 5831 5833 5834 5835 5837 5839 5841 5843 5845 5846 5847 5848 5849 5850 5851 5853 5855 5856 5856 5857 5857 5858 5858 5859 5860 5861 5861 5862 5862 5863 5863 5863 5864 5864 5864 5864 5864 5863 5863 5864 5864 5864 5864 5864 5864 5863 5863 5864 5864 5863 5862 5861 5861
5806 5808 5810 5813 5816 5818 5820 5821 5823 5826 5828 5829 5831 5832 5834 5835 5837 5839 5841 5843 5844 5845 5846 5848 5849 5850 5851 5852 5853 5853 5853 5854 5854 5855 5857 5857 5858 5859 5859 5859 5859 5859 5859 5859 5860 5860 5860 5859 5859 5859 5859 5859 5859 5859 5859 5858 5859 5860 5859 5858 5857 5857 5856
5802 5804 5806 5808 5811 5813 5816 5817 5819 5821 5823 5826 5827 5829 5830 5832 5833 5835 5837 5839 5840 5842 5844 5845 5846 5846 5846 5847 5847 5848 5849 5850 5851 5852 5853 5854 5854 5854 5854 5854 5854 5854 5855 5855 5855 5855 5855 5855 5855 5855 5855 5855 5854 5854 5854 5854 5854 5856 5856 5854 5853 5852 5851
5798 5800 5802 5804 5806 5808 5811 5813 5814 5816 5819 5821 5823 5825 5826 5828 5829 5831 5833 5834 5836 5837 5839 5840 5840 5841 5841 5841 5842 5843 5845 5846 5847 5848 5848 5848 5849 5849 5849 5849 5849 5850 5850 5850 5851 5851 5850 5851 5851 5851 5851 5851 5850 5849 5849 5849 5850 5851 5851 5850 5849 5847 5847
5793 5796 5798 5800 5802 5804 5806 5808 5810 5812 5814 5816 5819 5820 5822 5824 5825 5826 5828 5829 5831 5832 5833 5834 5835 5836 5837 5838 5838 5839 5841 5841 5842 5843 5843 5843 5843 5843 5844 5844 5844 5845 5845 5845 5845 5845 5845 5846 5846 5846 5846 5846 5845 5845 5845 5845 5845 5846 5846 5846 5845 5843 5842
5787 5790 5793 5795 5797 5799 5801 5804 5805 5807 5809 5812 5814 5816 5818 5819 5821 5822 5824 5825 5826 5827 5829 5830 5832 5832 5833 5834 5834 5835 5836 5837 5837 5837 5837 5837 5838 5838 5839 5839 5839 5839 5839 5839 5839 5839 5839 5840 5840 5840 5840 5840 5840 5840 5840 5840 5839 5839 5840 5840 5839 5839 5838
5781 5784 5787 5790 5793 5795 5798 5800 5801 5803 5805 5807 5809 5812 5813 5815 5817 5818 5819 5821 5821 5823 5824 5825 5826 5827 5828 5829 5829 5830 5831 5831 5831 5831 5831 5832 5832 5833 5833 5833 5833 5833 5833 5833 5834 5833 5833 5833 5833 5833 5834 5834 5834 5834 5834 5834 5833 5833 5833 5833 5833 5833 5832
5776 5779 5782 5784 5788 5791 5793 5796 5798 5799 5801 5803 5805 5807 5808 5810 5812 5813 5815 5816 5817 5818 5819 5820 5821 5822 5823 5823 5824 5824 5825 5826 5826 5826 5827 5827 5827 5827 5827 5828 5827 5828 5828 5828 5827 5827 5827 5827 5827 5826 5826 5826 5826 5827 5827 5826 5826 5827 5827 5827 5826 5825 5824
5771 5774 5777 5779 5782 5785 5788 5791 5793 5795 5797 5798 5800 5802 5803 5805 5807 5809 5810 5811 5812 5813 5814 5815 5816 5817 5818 5818 5819 5819 5819 5820 5821 5821 5821 5821 5821 5822 5822 5822 5821 5822 5822 5821 5821 5821 5821 5821 5821 5820 5820 5820 5820 5820 5819 5819 5819 5821 5821 5820 5819 5818 5817
5766 5769 5771 5774 5777 5779 5782 5785 5787 5790 5792 5793 5795 5797 5799 5800 5801 5803 5805 5806 5807 5808 5809 5810 5811 5812 5813 5814 5814 5814 5814 5814 5815 5815 5815 5816 5816 5816 5816 5816 5816 5815 5815 5815 5816 5816 5815 5815 5814 5814 5814 5814 5814 5813 5811 5811 5812 5814 5814 5814 5814 5813 5811
5761 5763 5766 5769 5771 5773 5776 5779 5781 5784 5786 5788 5790 5792 5794 5795 5796 5798 5799 5800 5802 5802 5803 5804 5805 5805 5806 5807 5807 5808 5808 5809 5809 5809 5809 5810 5810 5810 5810 5810 5809 5809 5808 5809 5809 5809 5809 5808 5808 5807 5808 5808 5807 5805 5803 5803 5805 5807 5808 5807 5806 5805 5803
5755 5757 5760 5763 5765 5768 5770 5773 5776 5779 5781 5783 5785 5787 5788 5790 5791 5792 5793 5794 5795 5796 5797 5798 5799 5799 5800 5800 5801 5801 5802 5803 5803 5803 5803 5803 5804 5803 5803 5803 5803 5802 5802 5802 5802 5802 5802 5801 5801 5801 5801 5800 5798 5797 5795 5796 5798 5800 5800 5799 5797 5796 5794
5749 5751 5754 5757 5759 5761 5764 5766 5769 5772 5775 5778 5780 5782 5783 5784 5785 5786 5787 5788 5789 5790 5791 5792 5792 5793 5793 5794 5795 5795 5796 5796 5797 5797 5797 5797 5797 5797 5797 5796 5796 5796 5795 5796 5795 5795 5794 5793 5793 5793 5792 5790 5790 5790 5789 5790 5791 5791 5789 5787 5787 5787 5785
5743 5746 5748 5750 5753 5756 5758 5760 5763 5766 5769 5772 5774 5776 5777 5778 5779 5780 5781 5782 5783 5784 5784 5785 5786 5786 5787 5787 5788 5789 5789 5789 5790 5790 5790 5790 5790 5789 5789 5789 5788 5788 5787 5787 5787 5787 5786 5785 5785 5785 5783 5781 5781 5782 5782 5782 5782 5782 5781 5779 5778 5777 5774
5738 5740 5742 5745 5747 5750 5752 5754 5757 5759 5762 5764 5767 5769 5771 5772 5773 5774 5775 5776 5777 5777 5777 5778 5779 5779 5780 5780 5781 5781 5782 5782 5782 5782 5782 5782 5782 5782 5781 5781 5780 5780 5779 5779 5778 5778 5778 5777 5776 5775 5774 5773 5772 5772 5771 5772 5773 5774 5775 5773 5769 5767 5766